Regional Weather Roundup
Issued by NWS

Home | Current Version | Previous Version | Graphics & Text | Print | Product List | Glossary On
Versions: 1 2 3 4 5 6 7 8 9 10 11 12 13 14 15 16 17 18 19 20 21 22 23 24 25 26 27 28 29 30 31 32 33 34 35 36 37 38 39 40 41 42 43 44 45 46 47 48 49 50
000
ASUS45 KPSR 240010
RWRAZ

ARIZONA REGIONAL HOURLY WEATHER ROUNDUP
NATIONAL WEATHER SERVICE PHOENIX AZ
500 PM MST THU OCT 23 2014

NOTE: FAIR INDICATES FEW OR NO CLOUDS BELOW 12,000 FEET WITH NO
SIGNIFICANT WEATHER AND/OR OBSTRUCTIONS TO VISIBILITY.

AZZ001>003-036-240100-
NORTHWEST ARIZONA

CITY           SKY/WX    TMP DP  RH WIND       PRES   REMARKS
BULLHEAD CITY  CLEAR     91  37  15 SW7       29.92S
KINGMAN        CLEAR     80  36  20 SW10      30.08S
6HR MIN TEMP:  78; 6HR MAX TEMP:  83;

$$

AZZ004>008-015-016-018-240100-
NORTH CENTRAL ARIZONA

CITY           SKY/WX    TMP DP  RH WIND       PRES   REMARKS
GRAND CANYON   MOCLDY    69  31  24 CALM      30.28S
6HR MIN TEMP:  67; 6HR MAX TEMP:  71;

PRESCOTT       CLEAR     76  36  23 SE9       30.18S
6HR MIN TEMP:  72; 6HR MAX TEMP:  79;

FLAGSTAFF      PTCLDY    63  32  31 SW7       30.31S
6HR MIN TEMP:  63; 6HR MAX TEMP:  70;

PAYSON         PTCLDY    73  37  27 VRB3      30.22S
PAGE           MOCLDY    73  32  22 CALM      30.13S
6HR MIN TEMP:  66; 6HR MAX TEMP:  76;

$$

AZZ009>014-017-240100-
NORTHEAST ARIZONA

CITY           SKY/WX    TMP DP  RH WIND       PRES   REMARKS
WINSLOW        MOCLDY    75  35  23 NE5       30.18R
6HR MIN TEMP:  67; 6HR MAX TEMP:  79;

SAINT JOHNS    PTCLDY    73  37  27 N7        30.22R
6HR MIN TEMP:  68; 6HR MAX TEMP:  75;

WINDOW ROCK    PTCLDY    69  29  22 NW5       30.29R
6HR MIN TEMP:  68; 6HR MAX TEMP:  75;

SHOW LOW       CLEAR     66  36  32 SW6       30.30R
$$

AZZ023-240100-
GREATER PHOENIX AREA

CITY           SKY/WX    TMP DP  RH WIND       PRES   REMARKS
PHOENIX        PTCLDY    92  45  19 CALM      29.92S
6HR MIN TEMP:  84; 6HR MAX TEMP:  94;

BUCKEYE          N/A     88  50  27 CALM      29.94S
GLENDALE       PTCLDY    91  46  21 SE5       29.95R
LUKE AFB       CLEAR     90  49  24 CALM      29.93S
6HR MIN TEMP:  83; 6HR MAX TEMP:  91;

DEER VALLEY    CLEAR     89  40  17 S5        29.95R
6HR MIN TEMP:  82; 6HR MAX TEMP:  90;

SCOTTSDALE     CLEAR     89  44  20 SW3       29.97R
6HR MIN TEMP:  83; 6HR MAX TEMP:  91;

MESA-FALCON    PTCLDY    90  45  20 SW7       29.94S
MESA-GATEWAY   PTCLDY    90  46  22 W6        29.97
CHANDLER       PTCLDY    90  48  24 VRB5      29.94S
$$

AZZ027-028-240100-
SOUTHWEST MARICOPA COUNTY AND PINAL COUNTY

CITY           SKY/WX    TMP DP  RH WIND       PRES   REMARKS
CASA GRANDE    CLEAR     90  46  22 CALM      29.96S
6HR MIN TEMP:  81; 6HR MAX TEMP:  90;

GILA BEND      CLEAR     91  45  19 N6        29.92S
6HR MIN TEMP:  87; 6HR MAX TEMP:  95;

$$

AZZ503-504-507>509-240100-
SOUTHEAST ARIZONA

CITY           SKY/WX    TMP DP  RH WIND       PRES   REMARKS
TUCSON         CLEAR     90  38  16 N5        30.02S
6HR MIN TEMP:  81; 6HR MAX TEMP:  91;

DAVIS-MONTHAN  CLEAR     87  39  18 NW7       30.01R
6HR MIN TEMP:  83; 6HR MAX TEMP:  88;

RYAN FIELD       N/A     90  43  19 W5        30.01S
NOGALES        CLEAR     83  40  21 W5        30.09S
6HR MIN TEMP:  79; 6HR MAX TEMP:  86;

SIERRA VISTA   CLEAR     77  41  27 NE5       30.15S
DOUGLAS        CLEAR     80  44  27 S7        30.12S
6HR MIN TEMP:  76; 6HR MAX TEMP:  83;

SAFFORD        CLEAR     82  46  28 SW3       30.05S
6HR MIN TEMP:  75; 6HR MAX TEMP:  84;

$$

AZZ020-021-025-026-031-240100-
SOUTHWEST ARIZONA

CITY           SKY/WX    TMP DP  RH WIND       PRES   REMARKS
YUMA           SUNNY     94  43  17 W5        29.87S
6HR MIN TEMP:  89; 6HR MAX TEMP:  97;

$$

CAZ031-033-041-043-047-048-061-240100-
SOUTHERN CALIFORNIA

CITY           SKY/WX    TMP DP  RH WIND       PRES   REMARKS
DOWNTOWN L.A.  SUNNY     79  56  45 W5        29.90F
6HR MIN TEMP:  78; 6HR MAX TEMP:  85;

L.A. AIRPORT   SUNNY     74  60  61 W9        29.91F
6HR MIN TEMP:  73; 6HR MAX TEMP:  77;

SAN DIEGO      MOSUNNY   77  58  51 W3        29.93S
6HR MIN TEMP:  71; 6HR MAX TEMP:  78;

BURBANK        SUNNY     85  34  16 S5        29.92S
6HR MIN TEMP:  79; 6HR MAX TEMP:  88;

ONTARIO        MOSUNNY   88  38  17 W9        29.92F
6HR MIN TEMP:  81; 6HR MAX TEMP:  92;

RIVERSIDE      SUNNY     87  40  19 W9        29.92S
6HR MIN TEMP:  81; 6HR MAX TEMP:  93;

PALM SPRINGS   SUNNY     92  44  19 SE6       29.91S
6HR MIN TEMP:  90; 6HR MAX TEMP:  95;

EL CENTRO NAS  MOSUNNY   94  45  18 E5        29.85F
6HR MIN TEMP:  89; 6HR MAX TEMP:  95;

IMPERIAL       SUNNY     94  46  19 E3        29.85F
6HR MIN TEMP:  86; 6HR MAX TEMP:  95;

BLYTHE         SUNNY     93  44  18 S5        29.89S
6HR MIN TEMP:  83; 6HR MAX TEMP:  95;

NEEDLES        CLEAR     92  40  16 E6        29.92S
6HR MIN TEMP:  81; 6HR MAX TEMP:  93;

$$

NVZ020-UTZ003-240100-
SOUTHERN NEVADA-UTAH

CITY           SKY/WX    TMP DP  RH WIND       PRES   REMARKS
LAS VEGAS      PTCLDY    85  36  17 CALM      29.95S
6HR MIN TEMP:  75; 6HR MAX TEMP:  86;

SALT LAKE CITY MOCLDY    61  39  44 W6        30.06R
6HR MIN TEMP:  61; 6HR MAX TEMP:  71;

$$

NMZ009-TXZ055-240100-
NEW MEXICO-WEST TEXAS

CITY           SKY/WX    TMP DP  RH WIND       PRES   REMARKS
ALBUQUERQUE    PTCLDY    73  35  25 W6        30.20R
6HR MIN TEMP:  65; 6HR MAX TEMP:  76;

EL PASO        PTCLDY    78  46  32 W6        30.12S
6HR MIN TEMP:  72; 6HR MAX TEMP:  80;

$$


........................KEY........................
SKY/WX - SKY CONDITION/WEATHER
TMP    - TEMPERATURE IN FAHRENHEIT
DP     - DEW POINT IN FAHRENHEIT
RH     - RELATIVE HUMIDITY IN PERCENT
WIND   - DIRECTION AND SPEED IN MILES PER HOUR (MPH)
VRB    - VARIABLE WIND DIRECTION
PRES   - MEAN SEA LEVEL PRESSURE IN INCHES OF MERCURY
         F - FALLING PRESSURE   R - RISING PRESSURE
         S - STEADY PRESSURE
VSB    - VISIBILITY IN MILES
HX     - HEAT INDEX IN FAHRENHEIT
WCI    - WIND CHILL INDEX IN FAHRENHEIT
TC     - TEMPERATURE IN CELSIUS WHICH IS ALSO KNOWN AS
         TEMPERATURE IN CENTIGRADE
AFB    - AIR FORCE BASE
         LUKE AFB IS LUKE AIR FORCE BASE
         DAVIS-MONTHAN IS DAVIS-MONTHAN AIR FORCE BASE
NAS    - NAVAL AIR STATION
         EL CENTRO NAS IS EL CENTRO NAVAL AIR STATION
N/A    - NOT AVAILABLE



USA.gov is the U.S. government's official web portal to all federal, state and local government web resources and services.